Powrót do katalogu

STARLINK-3851

AktywnyŁącznośćVLEO
NORAD 52344·PAYLOAD·🇺🇸 United States

Wystrzelony Apr 29, 2022 z Cape Canaveral Space Force Station

Loading…

Następne Przeloty (najbliższe 24 godziny)

TLE

ŚwieżeSource: CelesTrak SupGP

Epoka: Sep 15, 2026, 01:22 UTC

1 52344C 22045P   26258.05743056 -.00033476  00000+0 -98905-3 0  2580
2 52344  53.1594  61.0591 0001238  77.6525 275.8920 15.34407471    15

Śledź STARLINK-3851 w czasie rzeczywistym z AllMySat

Download on the App Store